World > North America > United States > New Jersey

Williamstown, New Jersey Regional Weather

Lat: 39.69N, Lon: 75W
Wx Zone: NJZ017
Warning NWS WEATHER ALERT - WIND ADVISORY (More Info. Click Here) Warning
Feedback

Williamstown, NJ Regional Weather

Expires:201910162100;;809914
ASUS41 KPHI 162012
RWRPHI

REGIONAL WEATHER ROUNDUP
NATIONAL WEATHER SERVICE MOUNT HOLLY NJ
400 PM EDT WED OCT 16 2019

NOTE:  "FAIR" INDICATES FEW OR NO CLOUDS BELOW 12,000 FEET WITH NO
SIGNIFICANT WEATHER AND/OR OBSTRUCTIONS TO VISIBILITY.

 * = STATION DOES NOT REPORT PRECIPITATION (E.G. RAIN, SNOW, ETC.) 
        OR FOG.


NJZ015>026-162100-
SOUTHERN NEW JERSEY
  
CITY           SKY/WX    TMP DP  RH WIND       PRES   REMARKS
POMONA         HVY RAIN  66  61  84 SE20G30   29.49F                  
WILDWOOD*      LGT RAIN  64  61  90 SE22G28   29.47F FOG              
MILLVILLE      HVY RAIN  63  61  93 SE9       29.51F VSB 3/4          
WRIGHTSTOWN    RAIN      65  62  92 SE10      29.55F                  
MOUNT HOLLY    RAIN      64  61  90 VRB6      29.54F FOG              
TRENTON        RAIN      64  62  93 SE10      29.56F FOG              

$$

SKY/WX - Weather  TMP - Temperature  DP - Dew Point  RH - Relative Humidity
WIND - Wind Direction/Speed PRES - Barometric Pressure VSB - Visibility
WCI - Wind Chill Index E13G22 Wind - East Wind 13 mph/Gusts of 22 mph